Regional Weather Roundup
Issued by NWS

Home | Current Version | Previous Version | Graphics & Text | Print | Product List | Glossary On
Versions: 1 2 3 4 5 6 7 8 9 10 11 12 13 14 15 16 17 18 19 20 21 22 23 24 25 26 27 28 29 30 31 32 33 34 35 36 37 38 39 40 41 42 43 44 45 46 47 48 49 50
912
ASUS45 KCYS 262010
RWRWY

WYOMING REGIONAL WEATHER ROUNDUP
NATIONAL WEATHER SERVICE CHEYENNE WY
200 PM MDT WED JUL 26 2017

NOTE:  "FAIR" INDICATES FEW OR NO CLOUDS BELOW 12,000 FEET
WITH NO SIGNIFICANT WEATHER AND/OR OBSTRUCTIONS TO VISIBILITY.

WYZ001-262100-
YELLOWSTONE NATIONAL PARK

CITY           SKY/WX    TMP DP  RH WIND       PRES   REMARKS
LK YELLOWSTONE   N/A     67  52  58 E5        30.40F
W YELLOWSTONE  NOT AVBL

$$
WYZ002>013-054>058-071-098>099-262100-
NORTHERN WYOMING

CITY           SKY/WX    TMP DP  RH WIND       PRES   REMARKS
JACKSON        PTSUNNY   66  52  59 CALM      30.33S
CODY           FAIR      80  49  33 VRB3      30.21F
GREYBULL       FAIR      87  50  27 SW8       30.12F
WORLAND        FAIR      86  52  30 VRB5      30.13F
SHERIDAN       FAIR      87  54  32 SE16G25   30.14F
BUFFALO        FAIR      79  53  40 SE10G21   30.23F
GILLETTE       CLOUDY    80  55  42 SE12      30.21F
HULETT         FAIR      79  54  41 CALM      30.23S
NEWCASTLE      FAIR      79  50  36 S8        30.24S

$$
WYZ014>020-022>026-101>103-262100-
CENTRAL WYOMING

CITY           SKY/WX    TMP DP  RH WIND       PRES   REMARKS
BIG PINEY      LGT RAIN  66  53  63 NW21G26   30.37R
PINEDALE       CLOUDY    70  48  46 W24G31    30.36R
DUBOIS         LGT RAIN  66  48  52 W3        30.33S
LANDER         FAIR      81  48  31 VRB3      30.24F
RIVERTON       FAIR      80  52  37 E6        30.24F
CASPER         FAIR      75  58  55 SE8       30.26F
DOUGLAS        FAIR      73  56  54 SE16      30.29S

$$
WYZ021-027>030-104>119-262100-
SOUTHERN WYOMING

CITY           SKY/WX    TMP DP  RH WIND       PRES   REMARKS
EVANSTON       PTSUNNY   72  54  53 W10       30.36F
KEMMERER       RAIN      64  55  72 S6        30.40R
FORT BRIDGER   CLOUDY    74  50  43 N9G17     30.38S
ROCK SPRINGS   PTSUNNY   76  48  37 W7        30.32F
RAWLINS        PTSUNNY   72  52  49 W3        30.33F
SARATOGA       FAIR      73  52  46 N8        30.34F
LARAMIE        PTSUNNY   71  54  54 E8        30.35F
CHEYENNE       PTSUNNY   71  56  58 NE10G20   30.32S
TORRINGTON     FAIR      78  51  38 NE7G17    30.21S
PINE BLUFFS    MOCLDY    77  55  47 N16       30.26S

$$




USA.gov is the U.S. government's official web portal to all federal, state and local government web resources and services.